www.pogodaiklimat.ru

Погода и климат >> Архив погоды >> Индия >> New Delhi


АРХИВ ПОГОДЫ в New Delhi

Время (UTC), дата Ветер
(напр.,м/с)
 
Видим.   Явления Облачность Т
(С)
Тd
(С)
f
(%)
Тe
(С)
Тes
(С)
Комфортность P
(гПа)
Po
(гПа)
Тmin
(С)
Tmax
(С)
R
(мм)
R24
(мм)
S
(см)
09 18.09 СЗ 5 4000 м мгла ясно +35.6 +20.8 42 +42 +49 опасность
перегрева
1001.7 1002.0
12 18.09 С 2 4000 м мгла 3/0
[Ac trans]
+34.4 +25.8 61 +50 +50 опасность
перегрева
1001.4 1001.0 +35.8
15 18.09 СЗ 2 2000 м мгла ясно +30.8 +22.9 63 +41 +41 опасность
перегрева
1002.6 1003.0
18 18.09 штиль 0 2000 м мгла ясно +28.4 +21.9 68 +37 +37 очень
душно
1005.1 1005.0
21 18.09 штиль 0 2000 м дымка ясно +26.8 +22.4 77 +35 +35 очень
душно
1003.4 1003.0
00 19.09 штиль 0 2000 м дымка ясно +26.0 +22.1 79 +34 +34 очень
душно
1003.3 1003.0
03 19.09 С 1 2000 м дымка 4/3 1200 м
[Sc Ac trans]
+28.4 +23.5 75 +39 +42 очень
душно
1004.9 1005.0 +25.6 +35.8
06 19.09 штиль 0 2000 м мгла 3/0
[Ac trans]
+34.2 +25.5 61 +49 +67 опасность
перегрева
1003.6 1004.0
09 19.09 штиль 0 2000 м мгла 5/3 1200 м
[Sc Ac trans]
+36.0 +22.4 46 +45 +55 опасность
перегрева
1001.5 1002.0
12 19.09 С 2 2000 м мгла 4/3 1200 м
[Sc Ac trans]
+34.4 +20.4 44 +41 +41 опасность
перегрева
1000.5 1001.0 +36.5
15 19.09 штиль 0 2000 м мгла 3/0
[Ac trans]
+30.2 +21.3 59 +38 +38 очень
душно
1002.4 1002.0
18 19.09 штиль 0 2000 м мгла 3/0
[Ac trans]
+28.2 +22.0 69 +36 +36 очень
душно
1003.1 1003.0
21 19.09 штиль 0 2000 м дымка ясно +26.6 +22.1 76 +34 +34 очень
душно
1002.5 1003.0
00 20.09 штиль 0 2000 м дымка ясно +25.4 +22.4 83 +33 +33 очень
душно
1003.1 1003.0
03 20.09 штиль 0 2000 м мгла ясно +28.8 +23.3 72 +39 +45 очень
душно
1004.0 1004.0 +25.0 +36.5
06 20.09 штиль 0 2000 м мгла 4/1 1200 м
[Sc Ac trans]
+25.0 +22.2 84 +32 +48 очень
душно
1003.4 1003.0
09 20.09 штиль 0 2000 м мгла 3/0
[Ac trans]
+36.4 +22.9 46 +46 +59 опасность
перегрева
1000.7 1001.0
12 20.09 С 3 2000 м мгла 3/0
[Ac trans]
+34.0 +21.3 48 +42 +42 опасность
перегрева
999.5 1000.0 +36.9
15 20.09 штиль 0 2000 м ясно +28.2 +18.6 56 +33 +33 очень
душно
1002.3 1002.0
18 20.09 штиль 0 2000 м ясно +25.0 +22.0 83 +32 +32 очень
душно
1003.2 1003.0
21 20.09 штиль 0 2000 м ясно +25.2 +22.5 85 +33 +33 очень
душно
1002.8 1003.0
00 21.09 штиль 0 2000 м ясно +25.0 +22.9 88 +33 +33 очень
душно
1003.1 1003.0
03 21.09 ЮВ 2 2000 м дымка 4/1 1000 м
[Sc Ac trans]
+28.8 +25.7 83 +43 +46 опасность
перегрева
1003.4 1003.0 +24.8 +36.9
06 21.09 В 2 2000 м мгла 9/4 1050 м
[Sc Ac trans]
+33.2 +24.7 61 +46 +51 опасность
перегрева
1003.4 1003.0
09 21.09 ЮВ 2 4000 м мгла 9/4 1050 м
[Sc Ac trans]
+34.4 +23.8 54 +46 +49 опасность
перегрева
1001.3 1001.0
12 21.09 В 3 4000 м мгла 6/4 1050 м
[Sc Ac trans]
+33.8 +24.4 58 +46 +47 опасность
перегрева
1000.5 1001.0 +35.4
15 21.09 В 3 2000 м мгла 8/4 1050 м
[Sc Ac trans]
+30.0 +23.7 69 +41 +41 опасность
перегрева
1002.7 1003.0
18 21.09 ЮВ 3 2000 м дымка 8/4 1050 м
[Sc Ac trans]
+28.4 +24.7 80 +40 +40 очень
душно
1003.4 1003.0
21 21.09 В 1 2000 м дымка 8/4 1050 м
[Sc Ac trans]
+27.6 +24.4 83 +39 +39 очень
душно
1002.8 1003.0
00 22.09 В 3 2000 м дымка 6/4 1050 м
[Sc Ac trans]
+27.0 +23.2 80 +36 +36 очень
душно
1002.5 1003.0
03 22.09 СВ 3 2000 м дымка 9/4 900 м
[Cb calv Ac trans]
+27.4 +23.3 78 +37 +38 очень
душно
1004.3 1004.0 +26.5 +35.4
06 22.09 В 3 2000 м дождь {морось} 10/6 750 м
[Cb calv As op]
+26.4 +24.1 87 +37 +38 очень
душно
1004.9 1005.0 2
09 22.09 С 3 2000 м дождь {морось} 10/6 750 м
[Cb calv As op]
+25.8 +24.6 93 1003.5 1003.3 4
12 22.09 СВ 3 2000 м дождь 10/6 750 м
[Cb calv Ac trans Ci sp]
+24.6 +24.6 100 +34 +35 очень
душно
1002.4 1002.0 +27.5 18
15 22.09 СВ 1 2000 м дождь {туман} 10/6 750 м
[Cb calv As op]
+24.8 +24.8 100 +35 +35 очень
душно
1003.9 1004.0 44
18 22.09 С 3 2000 м дождь {туман} 10/6 600 м
[Cb calv As op]
+24.6 +24.6 100 +34 +34 очень
душно
1004.1 1004.0 45
21 22.09 С 3 2000 м дождь {туман} 10/6 600 м
[Cb calv As op]
+24.4 +24.4 100 +34 +34 очень
душно
1004.1 1004.0 47
00 23.09 СВ 2 1000 м дождь {гроза} 10/6 600 м
[Cb calv As op]
+24.2 +24.2 100 +33 +33 очень
душно
1003.0 1003.0 71
03 23.09 С 1 1000 м дождь {гроза} 10/6 600 м
[Cb calv As op]
+24.2 +23.9 98 +33 +33 очень
душно
1005.2 1005.0 +23.5 +27.5 78
06 23.09 штиль 0 1000 м дождь 10/6 600 м
[Cb calv As op]
+24.8 +24.5 98 +35 +36 очень
душно
1005.6 1006.0 0.2
09 23.09 С 3 2000 м дымка {дождь} 10/6 600 м
[Sc As op]
+25.0 +24.1 95 +34 +35 очень
душно
1004.8 1005.0 0.8
12 23.09 СЗ 3 2000 м дымка 10/6 450 м
[Frnb As op]
+26.0 +24.3 90 +36 +36 очень
душно
1004.7 1005.0 +26.2 0.8
15 23.09 З 3 2000 м дымка 6/4 900 м
[Sc Ac trans]
+25.0 +23.5 91 +34 +34 очень
душно
1006.1 1006.0 0.8
18 23.09 СЗ 2 2000 м дымка 6/4 1050 м
[Sc Ac trans]
+24.4 +23.2 93 +33 +33 очень
душно
1006.9 1007.0 0.8
21 23.09 СЗ 3 2000 м дымка 9/4 900 м
[Sc Ac trans]
+24.0 +23.1 95 +32 +32 очень
душно
1006.2 1006.0 0.8
00 24.09 СЗ 2 2000 м дымка 8/4 900 м
[Sc Ac trans]
+23.4 +22.5 95 +32 +32 очень
душно
1006.3 1006.0 0.8
03 24.09 СЗ 4 1000 м дымка 9/5 900 м
[Sc Ac trans]
+23.6 +22.6 94 +31 +32 очень
душно
1008.2 1008.0 +23.0 +26.2 0.8
06 24.09 З 4 2000 м дымка 8/4 1050 м
[Sc Ac trans]
+27.4 +23.0 77 +37 +40 очень
душно
1008.5 1009.0
09 24.09 С 4 2000 м мгла 4/1 1200 м
[Sc Ac trans]
+30.8 +22.9 63 +41 +46 опасность
перегрева
1006.6 1007.0
12 24.09 З 2 2000 м мгла ясно +30.0 +24.0 70 +41 +42 опасность
перегрева
1005.6 1006.0 +31.2
18 24.09 штиль 0 2000 м дымка ясно +25.0 +23.5 91 +34 +34 очень
душно
1006.1 1006.0
21 24.09 штиль 0 2000 м дымка ясно +24.4 +23.2 93 +33 +33 очень
душно
1005.0 1005.0
00 25.09 З 3 2000 м дымка ясно +24.2 +23.0 93 +32 +32 очень
душно
1005.2 1005.0
03 25.09 штиль 0 2000 м дымка ясно +26.2 +23.6 86 +36 +42 очень
душно
1006.6 1007.0 +23.8 +31.2

 

Местоположение метеостанции New Delhi (Delhi, Индия): широта 28.58 долгота 77.20 высота над уровнем моря 216 м.

В архиве по умолчанию представлена погода в New Delhi за последнюю неделю. Архивные данные за месяц целиком и за предыдущие месяцы, начиная с января 2011 года, Вы можете получить, выбрав интересующий диапазон дат из раскрывающегося списка и нажав кнопку "Ввод!".

Внимание! Время в таблицах - всемирное. Для получения местного времени необходимо прибавить поправку, которая в New Delhi равна 5.5 ч.

Смотрите также архив погоды в соседних городах и на ближайших метеорологических станциях:

Погода в New Delhi Airport (Delhi, Индия) (8 км)
Погода в Ridge (Delhi, Индия) (10 км)
Погода в New Delhi Aya Nagar (Delhi, Индия) (13 км)
Погода в Meerut (Uttar Pradesh, Индия) (70 км)
Погода в Karnal (Haryana, Индия) (126 км)
Погода в Hissar (Haryana, Индия) (157 км)
Погода в Pilani (Rajasthan, Индия) (161 км)
Погода в Najibabad (Uttar Pradesh, Индия) (163 км)
Погода в Agra (Uttar Pradesh, Индия) (176 км)
Погода в Ambala (Haryana, Индия) (204 км)

Пояснения к столбцам:

Ветер - указаны скорость ветра в м/с - средняя за 10 мин, порывы в срок и между сроками (в фигурных скобках) и направление, откуда дует ветер: С - северный, СВ - северо-восточный, В - восточный, ЮВ - юго-восточный, Ю - южный, ЮЗ - юго-западный, З - западный, СЗ - северо-западный.
Видимость - горизонтальная дальность видимости в метрах или километрах. При видимости от 1 до 10 км при отсутствии осадков обычно наблюдается дымка, при ухудшении видимости до 1 км и менее - туман. В сухую погоду видимость может ухудшаться дымом, пылью или мглою.
Явления - указаны атмосферные явления, наблюдавшиеся в срок или в последний час перед сроком; фигурными скобками обозначены явления, наблюдавшиеся между сроками (за 1-3 часа до срока); квадратными скобками обозначены град или гололедные отложения с указанием их диаметра в мм.
Облачность - указаны через наклонную черту общая и нижняя облачность в баллах и высота нижней границы облаков в метрах; квадратными скобками обозначены формы облаков: Ci - перистые, Cs - перисто-слоистые, Cc - перисто-кучевые, Ac - высококучевые, As - высокослоистые, Sc - слоисто-кучевые, Ns - слоисто-дождевые, Cu - кучевые, Cb - кучево-дождевые. Подробнее классификацию облаков см. в Атласе облаков (PDF).
T - Температура воздуха - температура, измеренная на высоте 2 м над землей.
Td - Температура точки росы - температура, при понижении до которой содержащийся в воздухе водяной пар достигнет насыщения.
f - Относительная влажность воздуха - влажноcть воздуха, измеренная на высоте 2 м над землей.
Te - Эффективная температура - температура, которую ощущает одетый по сезону человек в тени. Характеристика душности погоды. При расчете учитывается влияние влажности воздуха и скорости ветра на теплоощущения человека.
Tes - Эффективная температура на солнце - температура, которую ощущает человек, с поправкой на солнечный нагрев. Характеристика знойности погоды. Зависит от высоты солнца над горизонтом, облачности и скорости ветра. Ночью, в пасмурную погоду, а также при ветре 12 м/с и более поправка равна нулю.
P - Атмосферное давление - приведенное к уровню моря атмосферное давление.
Po - Атмосферное давление - измеренное на уровне метеостанции атмосферное давление.
Tmin - Минимальная температура - минимум температуры воздуха на высоте 2 м над землей.
Tmax - Максимальная температура - максимум температуры воздуха на высоте 2 м над землей.
R - Количество осадков - Количество выпавших осадков за период времени, мм. При наведении курсора мыши на число - период времени, за который выпало указанное количество осадков.
R24 - Количество осадков - Количество выпавших осадков за 24 часа, мм.
S - Снежный покров - Высота снежного покрова, см. При наведении курсора мыши на число - состояние снежного покрова и степень покрытия местности в баллах.